Temp
16 13 15 19 18 18 19 20 20 19 18 18 19 18 18 16 16 16 15 14 13 13 13 12 13 13 12 12 12 12 12 12 12 12 12 12 12 12 12 12 12 12 11 11
16 17 18 18 18 18 19 20 20 19 19 19 20 19 18 17 17 16 16 15 14 14 14 13 13 14 13 13 13 13 13 13 12 12 12 11 11 11 11 11 11 11 11 11
15 18 17 18 19 19 19 20 20 20 19 19 20 19 18 18 17 17 16 16 15 15 14 14 13 14 14 14 14 13 13 12 12 12 12 12 12 12 12 11 11 10 10 10
16 18 18 19 19 19 17 19 20 20 20 18 20 20 20 19 18 17 17 17 17 16 15 15 14 14 14 14 14 14 13 13 13 13 12 12 12 12 12 12 11 11 10 10
17 18 19 19 19 19 19 19 20 20 21 22 21 20 20 20 19 19 19 17 18 17 16 16 15 15 14 14 14 14 14 14 14 14 13 13 13 13 12 12 12 12 11 11
18 18 18 19 19 19 19 19 20 21 20 14 21 19 15 17 19 20 20 19 18 18 17 17 16 16 15 14 14 15 15 14 14 14 13 13 13 13 13 12 12 12 12 12
19 19 19 18 19 20 20 20 19 21 22 22 21 21 19 19 19 20 20 20 19 18 18 17 16 16 15 15 15 15 15 14 14 14 14 14 14 13 13 12 12 12 11 10
20 20 19 19 19 19 21 21 22 23 22 24 22 22 20 19 20 19 19 19 19 19 18 18 18 16 15 15 15 15 15 15 14 14 14 14 14 13 13 13 12 12 11 10
21 20 19 19 19 20 19 20 21 22 23 23 23 22 22 20 20 19 19 19 19 19 18 18 18 17 16 14 15 15 15 15 14 14 14 14 14 14 13 13 12 12 11 10
17 19 20 20 19 20 20 20 21 22 22 22 23 22 21 20 20 19 19 19 19 19 19 18 18 17 16 14 15 15 15 15 14 14 14 13 13 13 13 13 13 12 11 10
20 20 20 20 20 20 20 21 21 22 22 23 23 22 21 20 19 19 19 19 19 18 18 18 17 17 15 14 14 15 14 14 14 14 13 13 12 12 12 12 12 12 11 10
19 20 21 22 20 19 20 20 20 21 21 22 21 21 20 19 19 19 18 18 18 17 17 16 17 16 15 14 15 14 14 14 13 13 13 13 12 12 12 11 11 11 11 10
19 20 22 22 21 19 20 20 19 20 21 21 21 22 20 20 19 18 18 18 17 16 15 16 16 15 14 14 14 13 13 13 13 13 13 12 12 12 11 11 11 10 10 10
18 20 21 21 21 20 20 20 20 20 20 20 21 20 20 19 19 18 18 17 16 16 15 16 16 14 14 13 13 13 13 13 13 12 12 11 11 11 11 11 9 9 9 9
18 19 19 20 20 20 20 20 19 19 19 20 20 20 19 18 17 16 16 16 16 15 14 15 14 12 13 11 12 12 12 12 12 11 11 11 10 11 11 10 8 8 8 8
19 19 18 18 19 19 20 19 19 19 19 19 19 19 17 15 15 15 15 15 15 15 14 13 13 12 11 10 12 12 12 12 11 11 11 10 10 10 10 9 8 8 8 8
19 19 18 19 18 18 19 19 19 19 19 19 18 17 15 14 14 14 15 14 14 13 14 13 12 12 11 11 11 11 10 9 10 10 10 9 9 8 8 8 8 7 8 8
18 18 18 18 18 19 20 19 17 17 17 17 16 15 14 13 13 13 14 12 12 12 12 13 12 11 10 10 10 10 10 10 10 10 9 8 8 8 8 8 7 7 7 7
17 18 18 18 18 19 19 17 17 16 16 15 13 13 13 12 12 14 13 11 11 11 11 11 11 10 10 10 10 10 10 10 9 9 8 8 8 8 8 7 7 6 6 7
17 17 16 17 17 18 18 16 15 15 16 13 12 12 12 11 12 13 12 11 10 11 10 10 10 10 9 9 10 10 9 9 9 8 8 8 8 7 7 7 7 7 6 7
18 18 17 18 17 17 15 15 13 15 14 13 11 11 11 11 11 10 10 10 10 9 9 9 9 9 9 9 9 9 9 8 8 8 8 8 8 7 7 7 7 6 6 6
17 17 17 17 17 17 13 14 13 12 12 12 12 11 10 9 9 10 9 9 8 8 7 9 9 8 9 9 8 8 8 8 7 7 7 7 8 7 7 6 6 6 6 6
16 16 15 15 15 13 12 12 10 9 9 10 9 9 9 9 9 8 8 7 7 7 8 8 8 8 8 8 8 8 7 7 7 7 7 7 7 6 6 6 6 6 6 6
16 14 14 13 14 12 10 11 9 8 10 9 8 8 8 8 7 7 6 7 8 8 8 8 8 8 8 8 7 7 7 7 7 7 7 7 7 6 5 5 6 6 6 6
14 13 12 12 12 11 10 8 8 9 8 7 7 7 7 7 6 6 6 7 7 8 8 7 7 7 7 7 7 7 7 6 6 6 6 7 6 6 6 5 5 6 6 5
12 12 11 12 9 10 9 8 9 8 8 6 6 7 6 6 6 5 7 7 7 7 7 6 6 6 6 7 6 6 6 6 6 6 6 6 5 5 5 5 5 5 5 5
Height
3194 3171 3183 3187 3185 3188 3186 3184 3184 3185 3186 3184 3185 3185 3186 3187 3188 3190 3191 3191 3192 3193 3194 3193 3193 3194 3195 3195 3195 3196 3196 3196 3196 3196 3196 3196 3196 3196 3195 3195 3195 3194 3194 3194
3190 3187 3189 3185 3186 3187 3185 3185 3183 3188 3186 3184 3184 3185 3186 3187 3188 3190 3191 3192 3193 3193 3195 3195 3193 3194 3195 3195 3195 3196 3196 3196 3196 3196 3196 3196 3196 3196 3196 3195 3194 3193 3191 3190
3183 3188 3186 3185 3186 3186 3186 3184 3185 3185 3186 3185 3184 3185 3187 3188 3189 3190 3191 3192 3193 3194 3194 3195 3194 3193 3194 3194 3194 3194 3194 3195 3195 3195 3194 3194 3194 3194 3194 3192 3191 3190 3189 3187
3189 3192 3188 3186 3186 3187 3189 3186 3185 3184 3185 3185 3183 3187 3186 3186 3189 3191 3191 3191 3193 3193 3193 3194 3193 3192 3192 3193 3193 3193 3193 3193 3193 3193 3192 3191 3191 3190 3189 3188 3186 3186 3184 3184
3188 3191 3188 3186 3188 3188 3188 3186 3185 3182 3177 3179 3180 3183 3189 3190 3188 3189 3190 3192 3193 3193 3193 3193 3193 3193 3192 3193 3192 3192 3192 3192 3191 3190 3190 3189 3188 3187 3185 3183 3181 3180 3179 3178
3191 3191 3189 3188 3189 3190 3187 3187 3184 3180 3176 3194 3182 3181 3195 3191 3188 3187 3187 3190 3192 3193 3193 3193 3193 3193 3192 3191 3191 3191 3190 3190 3189 3188 3186 3186 3184 3182 3180 3178 3174 3172 3170 3170
3185 3185 3187 3189 3189 3188 3187 3185 3190 3178 3174 3176 3177 3176 3184 3186 3184 3187 3189 3188 3188 3190 3191 3192 3192 3192 3191 3189 3188 3188 3187 3187 3186 3184 3182 3180 3178 3176 3173 3171 3168 3166 3163 3160
3181 3184 3187 3189 3189 3189 3183 3181 3175 3169 3173 3167 3173 3174 3181 3183 3186 3186 3188 3188 3189 3189 3189 3189 3188 3187 3187 3186 3184 3184 3183 3183 3182 3180 3178 3175 3172 3170 3167 3164 3161 3158 3155 3153
3179 3184 3188 3189 3189 3190 3187 3185 3182 3177 3168 3168 3165 3172 3175 3181 3183 3185 3186 3186 3186 3186 3186 3186 3186 3185 3183 3180 3179 3179 3179 3178 3177 3176 3174 3172 3169 3166 3162 3158 3153 3149 3146 3144
3184 3188 3187 3189 3189 3188 3187 3186 3182 3175 3173 3171 3169 3174 3176 3182 3183 3183 3185 3184 3183 3183 3182 3182 3182 3182 3180 3176 3173 3173 3173 3173 3172 3170 3169 3167 3164 3161 3157 3153 3148 3142 3138 3135
3184 3185 3188 3186 3186 3186 3186 3182 3181 3180 3179 3174 3172 3174 3179 3181 3182 3182 3182 3182 3181 3180 3179 3177 3176 3178 3173 3172 3167 3168 3167 3167 3166 3164 3162 3159 3156 3152 3148 3145 3140 3135 3130 3127
3186 3184 3181 3181 3185 3188 3186 3185 3185 3180 3180 3176 3179 3178 3175 3179 3180 3180 3179 3178 3177 3175 3174 3171 3172 3171 3165 3164 3162 3163 3162 3160 3159 3157 3155 3152 3148 3145 3141 3137 3133 3128 3123 3120
3187 3184 3178 3177 3182 3186 3184 3185 3186 3183 3180 3178 3178 3174 3174 3177 3177 3177 3176 3175 3173 3171 3167 3165 3164 3164 3158 3157 3157 3156 3155 3154 3152 3151 3148 3145 3142 3138 3133 3128 3124 3119 3115 3112
3187 3185 3181 3177 3178 3181 3182 3183 3182 3181 3179 3177 3174 3173 3174 3175 3174 3174 3173 3172 3170 3167 3162 3159 3156 3156 3151 3150 3150 3150 3149 3148 3145 3144 3141 3138 3134 3131 3126 3121 3115 3110 3107 3103
3187 3184 3182 3181 3181 3181 3180 3179 3179 3179 3178 3177 3174 3173 3173 3170 3171 3171 3170 3168 3166 3163 3159 3155 3152 3150 3147 3145 3145 3145 3144 3142 3139 3136 3134 3131 3128 3123 3120 3115 3108 3103 3099 3095
3183 3183 3183 3182 3181 3178 3176 3174 3174 3174 3173 3171 3171 3171 3167 3168 3168 3167 3166 3164 3161 3159 3156 3152 3150 3148 3144 3143 3141 3140 3137 3134 3132 3130 3126 3122 3118 3114 3112 3108 3102 3096 3092 3088
3181 3180 3180 3178 3178 3177 3175 3170 3170 3170 3169 3169 3169 3168 3166 3165 3164 3164 3163 3159 3157 3154 3152 3149 3146 3145 3143 3141 3137 3135 3132 3128 3124 3121 3118 3114 3111 3107 3103 3100 3095 3090 3085 3082
3180 3180 3180 3177 3175 3174 3168 3167 3168 3169 3169 3167 3168 3167 3166 3164 3163 3161 3158 3153 3151 3149 3146 3146 3143 3140 3138 3135 3134 3129 3126 3123 3118 3113 3111 3106 3104 3100 3096 3092 3088 3083 3079 3075
3179 3178 3176 3174 3171 3169 3167 3165 3166 3167 3168 3164 3164 3163 3162 3160 3157 3159 3151 3147 3145 3143 3141 3139 3137 3134 3131 3128 3124 3121 3117 3114 3110 3106 3104 3099 3096 3091 3088 3084 3080 3075 3072 3068
3175 3176 3177 3173 3171 3167 3166 3161 3161 3164 3165 3159 3159 3158 3156 3153 3151 3151 3145 3143 3140 3139 3136 3133 3131 3129 3127 3120 3116 3114 3109 3106 3101 3098 3094 3090 3087 3083 3079 3076 3071 3068 3063 3060
3170 3169 3168 3165 3164 3163 3159 3158 3157 3161 3162 3155 3154 3153 3150 3148 3147 3142 3141 3139 3135 3132 3129 3125 3122 3120 3116 3113 3108 3105 3102 3098 3093 3089 3086 3082 3076 3073 3070 3068 3063 3059 3056 3053
3167 3166 3164 3161 3160 3158 3155 3158 3157 3153 3150 3149 3148 3146 3144 3141 3139 3137 3135 3131 3127 3123 3120 3117 3114 3110 3107 3104 3099 3094 3090 3086 3081 3078 3074 3070 3067 3064 3060 3057 3055 3051 3046 3043
3163 3162 3160 3163 3160 3155 3153 3154 3150 3146 3144 3143 3142 3141 3139 3137 3134 3131 3127 3124 3120 3116 3112 3109 3105 3101 3097 3093 3089 3083 3078 3072 3068 3064 3061 3057 3053 3052 3050 3046 3044 3042 3042 3039
3158 3153 3156 3158 3157 3154 3150 3151 3143 3139 3139 3138 3138 3137 3135 3132 3129 3125 3121 3116 3113 3109 3105 3101 3096 3092 3087 3083 3077 3072 3065 3060 3055 3051 3047 3044 3039 3039 3034 3036 3035 3034 3033 3032
3154 3149 3152 3151 3150 3146 3148 3142 3136 3136 3135 3134 3134 3132 3130 3126 3123 3118 3114 3109 3105 3100 3096 3092 3087 3082 3077 3072 3067 3061 3055 3049 3044 3040 3035 3032 3028 3028 3027 3026 3027 3027 3026 3026
3147 3146 3147 3147 3142 3140 3140 3136 3133 3132 3131 3129 3128 3125 3123 3120 3116 3111 3106 3102 3097 3093 3087 3081 3077 3073 3068 3063 3058 3052 3047 3040 3035 3028 3023 3019 3017 3017 3017 3017 3018 3019 3019 3018
Wind_Speed
4 12 11 7 9 6 4 2 7 5 1 4 2 2 4 7 10 11 10 12 12 11 11 11 4 5 7 6 5 4 3 2 0 1 1 2 4 4 6 8 11 14 16 20
10 3 8 8 5 3 1 2 10 2 3 0 4 9 8 5 8 10 10 11 11 12 12 14 10 5 8 7 7 6 6 5 3 4 6 8 9 11 11 11 12 12 14 16
7 6 4 3 2 5 5 5 4 1 3 5 9 12 9 7 7 7 8 9 10 11 12 15 16 8 7 8 9 9 10 10 11 12 15 15 15 17 17 18 17 17 19 18
5 4 3 1 3 3 3 4 2 4 8 10 7 6 5 9 7 6 8 10 9 10 11 13 15 14 13 11 13 13 13 13 14 14 15 18 19 21 20 22 26 23 26 25
3 2 1 2 2 2 4 2 3 4 10 10 8 7 5 4 7 5 8 6 7 7 7 8 10 11 11 13 12 10 10 11 13 17 18 21 23 24 25 29 30 33 31 31
9 4 3 5 2 4 6 6 6 8 11 13 13 9 5 14 7 6 8 5 6 6 7 7 8 11 11 12 12 11 11 13 16 19 21 23 25 28 30 31 34 35 37 38
10 8 4 4 7 6 7 8 9 10 6 5 2 2 2 10 6 4 5 6 8 9 10 11 12 13 13 13 11 13 15 16 17 19 20 24 26 29 32 32 34 35 35 37
7 2 6 4 6 7 11 10 13 4 3 1 5 6 9 5 5 5 9 9 10 10 11 12 14 15 18 18 16 15 12 11 10 13 16 18 19 22 24 26 29 32 33 34
1 8 5 2 3 4 8 7 8 12 14 8 5 8 5 4 1 1 5 10 12 14 15 14 15 18 18 22 22 23 19 16 16 18 18 19 22 25 29 30 31 34 35 32
3 6 5 1 4 4 7 11 14 13 4 6 10 12 19 3 2 6 8 9 11 14 16 18 18 20 20 21 24 26 25 24 22 21 22 21 23 27 31 33 34 34 34 33
5 8 5 4 2 7 10 14 4 10 10 8 9 10 1 4 8 11 12 14 16 16 18 18 22 20 26 22 27 27 28 27 25 24 24 24 26 30 35 38 39 36 32 31
6 8 13 2 3 6 8 10 9 15 8 12 8 17 4 10 12 13 19 15 16 18 21 24 18 22 32 36 30 29 30 30 28 25 26 28 31 35 38 42 42 39 36 32
4 9 16 12 9 3 0 5 8 11 13 15 12 11 7 14 15 15 12 13 17 19 21 21 22 23 35 38 30 30 31 31 28 26 27 30 34 38 44 49 46 41 35 33
7 13 16 17 16 14 14 14 12 12 15 18 20 20 18 19 18 14 14 17 20 22 23 26 25 21 33 29 26 28 30 28 28 27 29 32 35 38 44 52 44 39 35 34
8 14 14 16 14 17 17 17 17 18 19 22 25 23 22 13 12 13 17 19 21 21 20 18 14 18 21 20 24 26 27 27 27 29 30 33 35 38 46 46 39 36 36 36
11 13 13 15 17 19 19 21 21 22 22 21 19 17 7 10 10 14 19 20 19 16 18 17 13 14 17 18 24 26 29 32 32 31 34 36 36 35 40 39 40 38 34 32
7 11 12 18 19 22 26 22 14 14 14 14 13 12 11 13 15 17 20 16 15 15 16 18 15 13 16 17 23 25 22 24 31 34 36 35 34 32 36 39 40 38 34 33
11 12 15 20 19 15 8 13 10 14 15 13 9 10 10 13 16 19 17 14 17 20 20 18 17 17 19 18 16 24 26 29 32 34 32 32 31 29 35 39 40 40 35 34
14 17 20 19 21 25 19 9 6 6 13 10 8 10 14 18 20 16 20 21 21 21 17 14 13 14 16 23 25 28 29 30 31 27 30 33 34 35 34 37 38 40 40 34
12 14 17 17 18 19 25 7 13 12 18 5 7 12 17 21 25 26 30 23 19 16 18 15 12 12 14 22 29 32 35 36 33 32 32 32 35 36 36 36 39 41 41 34
22 20 20 22 25 24 13 11 7 12 9 12 13 18 23 29 25 23 19 18 17 15 13 18 21 23 27 31 35 37 36 35 37 37 40 41 38 39 38 38 38 40 40 30
23 26 26 24 25 23 10 7 7 10 15 19 29 34 30 22 20 18 17 17 17 18 20 29 29 30 35 36 39 42 43 42 44 43 43 47 46 42 38 36 35 36 36 24
19 20 19 16 18 20 10 11 12 11 20 24 23 19 16 14 14 14 15 16 18 21 27 29 31 37 41 44 47 48 46 49 51 50 49 49 47 43 37 33 32 35 36 28
20 19 19 20 15 14 12 14 13 16 29 18 12 12 14 15 16 17 19 23 29 32 35 39 41 39 39 39 40 42 44 46 47 45 44 43 41 36 35 32 33 35 30 25
15 18 14 16 19 22 15 11 17 26 16 10 11 11 15 17 18 20 24 31 33 32 33 35 37 36 36 35 36 37 38 41 41 41 41 39 39 35 32 31 27 27 27 24
15 16 12 12 12 18 18 21 26 19 15 13 14 17 16 19 22 23 28 30 34 36 37 36 33 33 33 33 36 36 37 38 38 43 39 33 31 28 26 26 24 24 24 19
Wind_Direction
251 245 128 103 93 115 86 105 99 74 245 174 67 175 192 202 185 197 196 194 195 192 199 200 176 182 191 180 176 178 188 210 115 28 325 280 278 298 302 292 281 278 274 273
218 306 111 93 113 135 171 75 70 53 99 124 95 89 115 167 192 205 203 219 214 207 208 210 225 232 215 220 236 241 232 228 235 284 294 297 298 302 303 304 302 289 279 270
204 50 76 92 209 259 17 6 4 212 156 147 140 127 112 128 147 187 185 208 213 214 212 220 222 251 242 250 256 246 244 256 271 278 280 284 285 287 286 285 283 281 275 272
172 143 99 1 292 319 296 341 334 259 163 264 179 39 160 137 127 140 154 165 165 179 195 212 225 233 243 242 249 254 262 270 276 284 286 291 292 291 293 283 282 279 276 280
193 290 248 259 316 333 22 350 302 268 244 186 226 95 80 155 142 146 151 149 171 184 190 198 208 217 213 226 232 258 262 272 277 286 288 291 293 295 291 287 284 284 278 276
244 235 202 332 246 286 280 270 280 257 98 16 267 133 199 322 202 178 182 173 192 208 214 210 217 216 212 216 223 249 273 276 279 285 289 290 291 292 289 288 288 285 280 276
220 219 208 244 251 261 272 258 261 298 201 172 54 261 177 147 242 179 223 243 234 228 246 238 232 227 222 224 239 254 266 272 277 285 288 289 289 288 286 285 282 280 280 282
141 71 204 199 268 249 298 309 330 281 16 189 107 102 146 176 270 266 247 257 259 258 263 257 263 245 239 231 252 250 266 273 280 300 313 319 325 321 313 301 291 289 288 283
291 133 160 143 264 278 283 320 317 311 270 251 167 112 278 154 130 299 291 272 270 263 262 263 260 255 246 233 245 256 263 272 288 298 307 316 326 328 326 317 307 300 295 284
287 204 166 285 259 253 281 309 305 289 319 293 40 273 77 148 318 319 298 294 293 283 275 268 263 257 244 238 245 250 259 266 277 289 300 314 326 330 327 316 306 299 293 284
243 194 238 247 206 359 310 293 260 297 298 308 293 99 169 304 312 317 304 292 286 289 284 280 266 258 241 233 249 253 256 260 272 287 299 315 330 334 330 322 314 305 296 285
239 286 258 108 311 279 297 285 286 307 308 307 322 275 331 314 310 305 305 298 299 291 283 271 264 251 246 254 260 256 257 261 272 287 300 314 323 329 330 327 317 309 299 288
259 263 264 237 185 222 155 342 301 298 284 268 273 289 326 314 312 309 303 303 306 310 306 290 282 250 245 261 259 250 255 263 275 290 300 307 316 322 329 325 319 310 301 291
245 276 290 304 328 321 311 295 294 295 291 302 297 309 309 307 309 302 300 302 306 308 314 304 299 237 256 259 243 248 260 271 282 291 301 309 315 323 330 321 314 308 301 296
252 281 291 287 291 290 292 287 283 284 285 287 296 297 305 316 304 305 310 307 305 306 305 304 293 245 266 247 245 255 269 280 287 295 302 306 312 325 327 317 313 309 305 300
269 271 281 287 286 288 293 296 291 284 283 281 288 295 339 331 324 318 320 313 311 306 305 297 284 252 259 242 254 269 277 283 286 296 303 310 318 322 322 314 315 311 303 303
275 294 300 299 303 303 295 286 292 295 295 300 300 325 328 331 333 328 322 308 309 317 309 300 283 260 253 256 268 281 288 290 296 304 310 310 313 312 313 314 315 317 306 300
285 283 282 284 298 286 296 311 279 287 295 288 276 293 316 318 317 319 311 315 319 314 302 294 285 274 261 266 261 254 266 288 302 309 303 299 303 305 309 311 311 316 313 305
281 289 291 301 289 291 292 307 287 282 293 302 278 298 309 314 314 320 298 314 316 312 312 300 286 278 265 255 266 279 287 295 304 298 296 295 298 306 305 301 303 310 314 305
275 279 281 289 295 288 298 268 273 293 284 277 315 313 317 321 316 303 298 314 317 300 301 303 287 282 280 269 282 290 302 308 303 297 297 298 298 296 301 301 298 302 306 305
279 285 277 284 289 289 282 274 290 275 279 279 310 317 314 313 307 308 310 306 309 307 304 288 291 293 288 293 296 298 297 299 298 294 295 294 291 295 294 294 295 296 303 298
280 279 278 285 286 293 314 299 278 267 271 280 287 295 307 310 311 309 303 296 296 301 303 295 299 299 294 295 298 298 297 298 297 295 287 296 291 292 293 286 298 295 293 292
283 276 280 276 292 292 294 306 295 287 296 301 308 313 314 313 314 311 308 310 308 302 298 300 299 296 295 293 292 292 291 292 295 293 292 290 289 288 283 277 288 289 291 296
276 267 270 275 286 267 281 299 284 297 302 312 307 308 309 308 311 308 307 304 301 299 299 298 299 299 298 297 298 297 295 293 293 294 295 294 292 288 273 277 284 297 289 285
255 274 273 270 272 263 282 290 287 296 302 307 306 304 301 302 306 308 308 307 305 307 308 307 305 305 307 308 308 308 306 303 301 300 297 294 287 286 281 279 285 288 301 280
257 258 254 261 293 260 265 278 290 288 282 293 301 296 303 304 304 309 313 313 316 318 318 317 315 310 310 309 310 312 312 309 308 305 297 289 283 278 276 273 279 281 290 275